sat.trackr.live / text

‹ back to catalog

STARLINK-2046

NORAD 47354 · 2021-005F

PAYLOAD ACTIVE UNKNOWN

§ Identity

Operator
Country
US
Launch date
2021-01-20
Launch site
AFETR
Launch vehicle
Mass (kg)
RCS (m²)

Purposes: comms

External: N2YO · Heavens-Above · Gunter

§ Orbital elements

Epoch: 2026-09-12T07:49:21.639360Z

Period
93.90 min
Inclination
53.1569°
Eccentricity
0.0003436
Mean motion
15.33523752 rev/d
Perigee alt
463.0 km
Apogee alt
467.7 km
Semi-major
6,843.4 km
B*
9.5054e-4
RAAN
235.2298°
Arg perigee
67.7163°
Mean anomaly
292.4203°
Rev number
31,217

§ Raw data

STARLINK-20461 47354U 21005F   26255.32594490  .00030996  00000+0  95054-3 0  99992 47354  53.1569 235.2298 0003436  67.7163 292.4203 15.33523752312173

JSON: /api/v1/satellites/47354 · /tle

For live sub-satellite position, see the globe view (requires WebGL).

§ Visibility from observer

Set your observer location to see the next 7 days of passes ≥ 10°. The values pass through the URL so the page stays shareable.

No JS? Fill the form by hand. The geolocation button needs JavaScript.